Location: Casilda
(33.0440°S, 61.1680°W)
Time: 15:34:08
(UTC-03:00)

ISS - Pass Details

Date: 13 June 2021
Orbit: 417 x 422 km, 51.6° (Epoch: 16 June)

Event Time Altitude Azimuth Distance (km) Brightness Sun altitude
Exits shadow 06:39:13 17° 324° (NW) 1,147 -1.8 -17.5°
Drops below altitude 10° 06:40:55 10° 353° (N) 1,504 -0.8 -17.2°
Sets 06:43:26 0° 12° (NNE) 2,358 0.5 -16.7°
